Year,Month,Day,Hour,Minute,Value (Times are PST for temperature in C)
2017,05,27,00,00,14.00
2017,05,27,00,01,14.00
2017,05,27,00,02,14.00
2017,05,27,00,03,14.00
2017,05,27,00,04,14.00
2017,05,27,00,05,14.00
2017,05,27,00,06,14.00
2017,05,27,00,07,13.90
2017,05,27,00,08,13.90
2017,05,27,00,09,13.90
2017,05,27,00,10,13.90
2017,05,27,00,11,13.90
2017,05,27,00,12,13.90
2017,05,27,00,13,13.90
2017,05,27,00,14,13.90
2017,05,27,00,15,13.90
2017,05,27,00,16,13.90
2017,05,27,00,17,13.90
2017,05,27,00,18,13.90
2017,05,27,00,19,13.90
2017,05,27,00,20,13.90
2017,05,27,00,21,13.90
2017,05,27,00,22,13.80
2017,05,27,00,23,13.80
2017,05,27,00,24,13.80
2017,05,27,00,25,13.80
2017,05,27,00,26,13.80
2017,05,27,00,27,13.80
2017,05,27,00,28,13.80
2017,05,27,00,29,13.80
2017,05,27,00,30,13.70
2017,05,27,00,31,13.70
2017,05,27,00,32,13.70
2017,05,27,00,33,13.70
2017,05,27,00,34,13.70
2017,05,27,00,35,13.70
2017,05,27,00,36,13.70
2017,05,27,00,37,13.70
2017,05,27,00,38,13.70
2017,05,27,00,39,13.70
2017,05,27,00,40,13.70
2017,05,27,00,41,13.70
2017,05,27,00,42,13.70
2017,05,27,00,43,13.70
2017,05,27,00,44,13.70
2017,05,27,00,45,13.70
2017,05,27,00,46,13.70
2017,05,27,00,47,13.70
2017,05,27,00,48,13.70
2017,05,27,00,49,13.60
2017,05,27,00,50,13.60
2017,05,27,00,51,13.60
2017,05,27,00,52,13.60
2017,05,27,00,53,13.60
2017,05,27,00,54,13.60
2017,05,27,00,55,13.60
2017,05,27,00,56,13.50
2017,05,27,00,57,13.50
2017,05,27,00,58,13.50
2017,05,27,00,59,13.50
2017,05,27,01,00,13.40
2017,05,27,01,01,13.40
2017,05,27,01,02,13.30
2017,05,27,01,03,13.30
2017,05,27,01,04,13.30
2017,05,27,01,05,13.30
2017,05,27,01,06,13.20
2017,05,27,01,07,13.20
2017,05,27,01,08,13.10
2017,05,27,01,09,13.10
2017,05,27,01,10,13.10
2017,05,27,01,11,13.00
2017,05,27,01,12,13.00
2017,05,27,01,13,13.00
2017,05,27,01,14,13.00
2017,05,27,01,15,12.90
2017,05,27,01,16,12.90
2017,05,27,01,17,12.90
2017,05,27,01,18,12.90
2017,05,27,01,19,12.80
2017,05,27,01,20,12.80
2017,05,27,01,21,12.80
2017,05,27,01,22,12.80
2017,05,27,01,23,12.80
2017,05,27,01,24,12.80
2017,05,27,01,25,12.80
2017,05,27,01,26,12.80
2017,05,27,01,27,12.80
2017,05,27,01,28,12.80
2017,05,27,01,29,12.80
2017,05,27,01,30,12.80
2017,05,27,01,31,12.80
2017,05,27,01,32,12.80
2017,05,27,01,33,12.80
2017,05,27,01,34,12.80
2017,05,27,01,35,12.80
2017,05,27,01,36,12.80
2017,05,27,01,37,12.80
2017,05,27,01,38,12.80
2017,05,27,01,39,12.80
2017,05,27,01,40,12.80
2017,05,27,01,41,12.80
2017,05,27,01,42,12.80
2017,05,27,01,43,12.80
2017,05,27,01,44,12.80
2017,05,27,01,45,12.90
2017,05,27,01,46,12.90
2017,05,27,01,47,12.90
2017,05,27,01,48,12.90
2017,05,27,01,49,13.00
2017,05,27,01,50,13.00
2017,05,27,01,51,13.10
2017,05,27,01,52,13.10
2017,05,27,01,53,13.10
2017,05,27,01,54,13.20
2017,05,27,01,55,13.20
2017,05,27,01,56,13.20
2017,05,27,01,57,13.20
2017,05,27,01,58,13.20
2017,05,27,01,59,13.20
2017,05,27,02,00,13.30
2017,05,27,02,01,13.30
2017,05,27,02,02,13.30
2017,05,27,02,03,13.30
2017,05,27,02,04,13.30
2017,05,27,02,05,13.30
2017,05,27,02,06,13.30
2017,05,27,02,07,13.30
2017,05,27,02,08,13.20
2017,05,27,02,09,13.20
2017,05,27,02,10,13.20
2017,05,27,02,11,13.20
2017,05,27,02,12,13.20
2017,05,27,02,13,13.10
2017,05,27,02,14,13.10
2017,05,27,02,15,13.10
2017,05,27,02,16,13.10
2017,05,27,02,17,13.00
2017,05,27,02,18,13.00
2017,05,27,02,19,12.90
2017,05,27,02,20,12.90
2017,05,27,02,21,12.80
2017,05,27,02,22,12.80
2017,05,27,02,23,12.80
2017,05,27,02,24,12.80
2017,05,27,02,25,12.70
2017,05,27,02,26,12.70
2017,05,27,02,27,12.60
2017,05,27,02,28,12.60
2017,05,27,02,29,12.60
2017,05,27,02,30,12.50
2017,05,27,02,31,12.50
2017,05,27,02,32,12.50
2017,05,27,02,33,12.40
2017,05,27,02,34,12.40
2017,05,27,02,35,12.40
2017,05,27,02,36,12.30
2017,05,27,02,37,12.30
2017,05,27,02,38,12.30
2017,05,27,02,39,12.30
2017,05,27,02,40,12.20
2017,05,27,02,41,12.20
2017,05,27,02,42,12.20
2017,05,27,02,43,12.10
2017,05,27,02,44,12.10
2017,05,27,02,45,12.10
2017,05,27,02,46,12.10
2017,05,27,02,47,12.00
2017,05,27,02,48,12.00
2017,05,27,02,49,12.00
2017,05,27,02,50,12.00
2017,05,27,02,51,12.00
2017,05,27,02,52,11.90
2017,05,27,02,53,11.90
2017,05,27,02,54,11.90
2017,05,27,02,55,11.80
2017,05,27,02,56,11.80
2017,05,27,02,57,11.80
2017,05,27,02,58,11.80
2017,05,27,02,59,11.80
2017,05,27,03,00,11.80
2017,05,27,03,01,11.80
2017,05,27,03,02,11.70
2017,05,27,03,03,11.70
2017,05,27,03,04,11.60
2017,05,27,03,05,11.60
2017,05,27,03,06,11.60
2017,05,27,03,07,11.60
2017,05,27,03,08,11.60
2017,05,27,03,09,11.60
2017,05,27,03,10,11.60
2017,05,27,03,11,11.40
2017,05,27,03,12,11.40
2017,05,27,03,13,11.40
2017,05,27,03,14,11.40
2017,05,27,03,15,11.40
2017,05,27,03,16,11.40
2017,05,27,03,17,11.40
2017,05,27,03,18,11.40
2017,05,27,03,19,11.40
2017,05,27,03,20,11.40
2017,05,27,03,21,11.40
2017,05,27,03,22,11.40
2017,05,27,03,23,11.40
2017,05,27,03,24,11.40
2017,05,27,03,25,11.40
2017,05,27,03,26,11.40
2017,05,27,03,27,11.40
2017,05,27,03,28,11.40
2017,05,27,03,29,11.40
2017,05,27,03,30,11.30
2017,05,27,03,31,11.30
2017,05,27,03,32,11.30
2017,05,27,03,33,11.30
2017,05,27,03,34,11.30
2017,05,27,03,35,11.30
2017,05,27,03,36,11.20
2017,05,27,03,37,11.20
2017,05,27,03,38,11.20
2017,05,27,03,39,11.10
2017,05,27,03,40,11.10
2017,05,27,03,41,11.10
2017,05,27,03,42,11.10
2017,05,27,03,43,11.10
2017,05,27,03,44,11.00
2017,05,27,03,45,10.90
2017,05,27,03,46,10.90
2017,05,27,03,47,10.90
2017,05,27,03,48,10.90
2017,05,27,03,49,10.90
2017,05,27,03,50,10.90
2017,05,27,03,51,10.90
2017,05,27,03,52,10.90
2017,05,27,03,53,10.90
2017,05,27,03,54,10.90
2017,05,27,03,55,10.90
2017,05,27,03,56,10.90
2017,05,27,03,57,10.90
2017,05,27,03,58,10.90
2017,05,27,03,59,10.90
2017,05,27,04,00,10.90
2017,05,27,04,01,10.90
2017,05,27,04,02,10.90
2017,05,27,04,03,10.90
2017,05,27,04,04,10.90
2017,05,27,04,05,10.90
2017,05,27,04,06,10.90
2017,05,27,04,07,10.90
2017,05,27,04,08,10.90
2017,05,27,04,09,10.90
2017,05,27,04,10,10.90
2017,05,27,04,11,10.80
2017,05,27,04,12,10.80
2017,05,27,04,13,10.80
2017,05,27,04,14,10.80
2017,05,27,04,15,10.80
2017,05,27,04,16,10.80
2017,05,27,04,17,10.80
2017,05,27,04,18,10.70
2017,05,27,04,19,10.70
2017,05,27,04,20,10.70
2017,05,27,04,21,10.70
2017,05,27,04,22,10.70
2017,05,27,04,23,10.70
2017,05,27,04,24,10.70
2017,05,27,04,25,10.60
2017,05,27,04,26,10.60
2017,05,27,04,27,10.60
2017,05,27,04,28,10.60
2017,05,27,04,29,10.60
2017,05,27,04,30,10.60
2017,05,27,04,31,10.60
2017,05,27,04,32,10.60
2017,05,27,04,33,10.60
2017,05,27,04,34,10.60
2017,05,27,04,35,10.60
2017,05,27,04,36,10.60
2017,05,27,04,37,10.60
2017,05,27,04,38,10.60
2017,05,27,04,39,10.60
2017,05,27,04,40,10.60
2017,05,27,04,41,10.60
2017,05,27,04,42,10.60
2017,05,27,04,43,10.60
2017,05,27,04,44,10.60
2017,05,27,04,45,10.50
2017,05,27,04,46,10.40
2017,05,27,04,47,10.40
2017,05,27,04,48,10.40
2017,05,27,04,49,10.40
2017,05,27,04,50,10.40
2017,05,27,04,51,10.40
2017,05,27,04,52,10.40
2017,05,27,04,53,10.40
2017,05,27,04,54,10.30
2017,05,27,04,55,10.30
2017,05,27,04,56,10.30
2017,05,27,04,57,10.40
2017,05,27,04,58,10.40
2017,05,27,04,59,10.40
2017,05,27,05,00,10.40
2017,05,27,05,01,10.40
2017,05,27,05,02,10.40
2017,05,27,05,03,10.40
2017,05,27,05,04,10.40
2017,05,27,05,05,10.40
2017,05,27,05,06,10.40
2017,05,27,05,07,10.40
2017,05,27,05,08,10.40
2017,05,27,05,09,10.40
2017,05,27,05,10,10.40
2017,05,27,05,11,10.40
2017,05,27,05,12,10.30
2017,05,27,05,13,10.30
2017,05,27,05,14,10.30
2017,05,27,05,15,10.30
2017,05,27,05,16,10.30
2017,05,27,05,17,10.30
2017,05,27,05,18,10.30
2017,05,27,05,19,10.20
2017,05,27,05,20,10.20
2017,05,27,05,21,10.20
2017,05,27,05,22,10.20
2017,05,27,05,23,10.20
2017,05,27,05,24,10.20
2017,05,27,05,25,10.20
2017,05,27,05,26,10.20
2017,05,27,05,27,10.10
2017,05,27,05,28,10.10
2017,05,27,05,29,10.10
2017,05,27,05,30,10.10
2017,05,27,05,31,10.20
2017,05,27,05,32,10.20
2017,05,27,05,33,10.20
2017,05,27,05,34,10.20
2017,05,27,05,35,10.20
2017,05,27,05,36,10.20
2017,05,27,05,37,10.20
2017,05,27,05,38,10.20
2017,05,27,05,39,10.20
2017,05,27,05,40,10.20
2017,05,27,05,41,10.20
2017,05,27,05,42,10.20
2017,05,27,05,43,10.20
2017,05,27,05,44,10.20
2017,05,27,05,45,10.20
2017,05,27,05,46,10.10
2017,05,27,05,47,10.10
2017,05,27,05,48,10.10
2017,05,27,05,49,10.10
2017,05,27,05,50,10.10
2017,05,27,05,51,10.10
2017,05,27,05,52,10.10
2017,05,27,05,53,10.10
2017,05,27,05,54,10.10
2017,05,27,05,55,10.10
2017,05,27,05,56,10.10
2017,05,27,05,57,10.10
2017,05,27,05,58,10.10
2017,05,27,05,59,10.20
2017,05,27,06,00,10.20
2017,05,27,06,01,10.20
2017,05,27,06,02,10.20
2017,05,27,06,03,10.20
2017,05,27,06,04,10.20
2017,05,27,06,05,10.20
2017,05,27,06,06,10.30
2017,05,27,06,07,10.30
2017,05,27,06,08,10.40
2017,05,27,06,09,10.40
2017,05,27,06,10,10.40
2017,05,27,06,11,10.40
2017,05,27,06,12,10.40
2017,05,27,06,13,10.40
2017,05,27,06,14,10.40
2017,05,27,06,15,10.40
2017,05,27,06,16,10.40
2017,05,27,06,17,10.50
2017,05,27,06,18,10.60
2017,05,27,06,19,10.60
2017,05,27,06,20,10.60
2017,05,27,06,21,10.60
2017,05,27,06,22,10.70
2017,05,27,06,23,10.70
2017,05,27,06,24,10.80
2017,05,27,06,25,10.90
2017,05,27,06,26,10.90
2017,05,27,06,27,10.90
2017,05,27,06,28,10.90
2017,05,27,06,29,11.10
2017,05,27,06,30,11.10
2017,05,27,06,31,11.10
2017,05,27,06,32,11.20
2017,05,27,06,33,11.30
2017,05,27,06,34,11.40
2017,05,27,06,35,11.40
2017,05,27,06,36,11.50
2017,05,27,06,37,11.60
2017,05,27,06,38,11.70
2017,05,27,06,39,11.70
2017,05,27,06,40,11.80
2017,05,27,06,41,11.80
2017,05,27,06,42,11.90
2017,05,27,06,43,11.90
2017,05,27,06,44,12.00
2017,05,27,06,45,12.00
2017,05,27,06,46,12.10
2017,05,27,06,47,12.10
2017,05,27,06,48,12.20
2017,05,27,06,49,12.20
2017,05,27,06,50,12.30
2017,05,27,06,51,12.30
2017,05,27,06,52,12.50
2017,05,27,06,53,12.50
2017,05,27,06,54,12.60
2017,05,27,06,55,12.70
2017,05,27,06,56,12.80
2017,05,27,06,57,12.90
2017,05,27,06,58,13.00
2017,05,27,06,59,13.10
2017,05,27,07,00,13.20
2017,05,27,07,01,13.30
2017,05,27,07,02,13.40
2017,05,27,07,03,13.50
2017,05,27,07,04,13.50
2017,05,27,07,05,13.60
2017,05,27,07,06,13.60
2017,05,27,07,07,13.70
2017,05,27,07,08,13.70
2017,05,27,07,09,13.70
2017,05,27,07,10,13.70
2017,05,27,07,11,13.70
2017,05,27,07,12,13.80
2017,05,27,07,13,13.80
2017,05,27,07,14,13.80
2017,05,27,07,15,13.80
2017,05,27,07,16,13.80
2017,05,27,07,17,13.80
2017,05,27,07,18,13.90
2017,05,27,07,19,13.90
2017,05,27,07,20,13.90
2017,05,27,07,21,13.90
2017,05,27,07,22,13.90
2017,05,27,07,23,13.90
2017,05,27,07,24,13.90
2017,05,27,07,25,13.90
2017,05,27,07,26,13.90
2017,05,27,07,27,13.90
2017,05,27,07,28,13.90
2017,05,27,07,29,13.90
2017,05,27,07,30,13.90
2017,05,27,07,31,13.90
2017,05,27,07,32,14.00
2017,05,27,07,33,14.00
2017,05,27,07,34,14.00
2017,05,27,07,35,14.00
2017,05,27,07,36,14.00
2017,05,27,07,37,14.00
2017,05,27,07,38,14.00
2017,05,27,07,39,14.00
2017,05,27,07,40,14.00
2017,05,27,07,41,14.00
2017,05,27,07,42,14.00
2017,05,27,07,43,14.00
2017,05,27,07,44,14.00
2017,05,27,07,45,14.10
2017,05,27,07,46,14.10
2017,05,27,07,47,14.20
2017,05,27,07,48,14.20
2017,05,27,07,49,14.20
2017,05,27,07,50,14.20
2017,05,27,07,51,14.30
2017,05,27,07,52,14.30
2017,05,27,07,53,14.30
2017,05,27,07,54,14.40
2017,05,27,07,55,14.40
2017,05,27,07,56,14.50
2017,05,27,07,57,14.50
2017,05,27,07,58,14.50
2017,05,27,07,59,14.60
2017,05,27,08,00,14.60
2017,05,27,08,01,14.70
2017,05,27,08,02,14.70
2017,05,27,08,03,14.70
2017,05,27,08,04,14.80
2017,05,27,08,05,14.80
2017,05,27,08,06,14.80
2017,05,27,08,07,14.80
2017,05,27,08,08,14.80
2017,05,27,08,09,14.80
2017,05,27,08,10,14.80
2017,05,27,08,11,14.80
2017,05,27,08,12,14.80
2017,05,27,08,13,14.80
2017,05,27,08,14,14.90
2017,05,27,08,15,14.90
2017,05,27,08,16,14.90
2017,05,27,08,17,14.90
2017,05,27,08,18,15.00
2017,05,27,08,19,15.00
2017,05,27,08,20,15.10
2017,05,27,08,21,15.20
2017,05,27,08,22,15.20
2017,05,27,08,23,15.30
2017,05,27,08,24,15.30
2017,05,27,08,25,15.40
2017,05,27,08,26,15.50
2017,05,27,08,27,15.50
2017,05,27,08,28,15.50
2017,05,27,08,29,15.50
2017,05,27,08,30,15.40
2017,05,27,08,31,15.40
2017,05,27,08,32,15.30
2017,05,27,08,33,15.30
2017,05,27,08,34,15.30
2017,05,27,08,35,15.30
2017,05,27,08,36,15.30
2017,05,27,08,37,15.30
2017,05,27,08,38,15.20
2017,05,27,08,39,15.20
2017,05,27,08,40,15.10
2017,05,27,08,41,15.10
2017,05,27,08,42,15.00
2017,05,27,08,43,15.00
2017,05,27,08,44,14.90
2017,05,27,08,45,14.90
2017,05,27,08,46,14.90
2017,05,27,08,47,14.80
2017,05,27,08,48,14.80
2017,05,27,08,49,14.80
2017,05,27,08,50,14.80
2017,05,27,08,51,14.80
2017,05,27,08,52,14.80
2017,05,27,08,53,14.80
2017,05,27,08,54,14.80
2017,05,27,08,55,14.80
2017,05,27,08,56,14.80
2017,05,27,08,57,14.80
2017,05,27,08,58,14.80
2017,05,27,08,59,14.90
2017,05,27,09,00,14.90
2017,05,27,09,01,14.90
2017,05,27,09,02,14.90
2017,05,27,09,03,14.90
2017,05,27,09,04,14.90
2017,05,27,09,05,14.90
2017,05,27,09,06,14.90
2017,05,27,09,07,15.00
2017,05,27,09,08,15.00
2017,05,27,09,09,15.10
2017,05,27,09,10,15.20
2017,05,27,09,11,15.20
2017,05,27,09,12,15.30
2017,05,27,09,13,15.30
2017,05,27,09,14,15.30
2017,05,27,09,15,15.30
2017,05,27,09,16,15.30
2017,05,27,09,17,15.30
2017,05,27,09,18,15.40
2017,05,27,09,19,15.40
2017,05,27,09,20,15.40
2017,05,27,09,21,15.50
2017,05,27,09,22,15.50
2017,05,27,09,23,15.50
2017,05,27,09,24,15.60
2017,05,27,09,25,15.70
2017,05,27,09,26,15.80
2017,05,27,09,27,15.80
2017,05,27,09,28,15.90
2017,05,27,09,29,16.00
2017,05,27,09,30,16.10
2017,05,27,09,31,16.10
2017,05,27,09,32,16.10
2017,05,27,09,33,16.20
2017,05,27,09,34,16.20
2017,05,27,09,35,16.30
2017,05,27,09,36,16.40
2017,05,27,09,37,16.40
2017,05,27,09,38,16.40
2017,05,27,09,39,16.50
2017,05,27,09,40,16.60
2017,05,27,09,41,16.60
2017,05,27,09,42,16.60
2017,05,27,09,43,16.60
2017,05,27,09,44,16.60
2017,05,27,09,45,16.60
2017,05,27,09,46,16.60
2017,05,27,09,47,16.60
2017,05,27,09,48,16.60
2017,05,27,09,49,16.60
2017,05,27,09,50,16.60
2017,05,27,09,51,16.60
2017,05,27,09,52,16.60
2017,05,27,09,53,16.70
2017,05,27,09,54,16.70
2017,05,27,09,55,16.70
2017,05,27,09,56,16.70
2017,05,27,09,57,16.70
2017,05,27,09,58,16.70
2017,05,27,09,59,16.70
2017,05,27,10,00,16.60
2017,05,27,10,01,16.60
2017,05,27,10,02,16.60
2017,05,27,10,03,16.60
2017,05,27,10,04,16.60
2017,05,27,10,05,16.60
2017,05,27,10,06,16.70
2017,05,27,10,07,16.70
2017,05,27,10,08,16.70
2017,05,27,10,09,16.80
2017,05,27,10,10,16.80
2017,05,27,10,11,16.80
2017,05,27,10,12,16.80
2017,05,27,10,13,16.70
2017,05,27,10,14,16.70
2017,05,27,10,15,16.70
2017,05,27,10,16,16.70
2017,05,27,10,17,16.70
2017,05,27,10,18,16.70
2017,05,27,10,19,16.70
2017,05,27,10,20,16.80
2017,05,27,10,21,16.80
2017,05,27,10,22,16.90
2017,05,27,10,23,16.90
2017,05,27,10,24,17.00
2017,05,27,10,25,17.10
2017,05,27,10,26,17.20
2017,05,27,10,27,17.30
2017,05,27,10,28,17.30
2017,05,27,10,29,17.30
2017,05,27,10,30,17.30
2017,05,27,10,31,17.30
2017,05,27,10,32,17.30
2017,05,27,10,33,17.30
2017,05,27,10,34,17.30
2017,05,27,10,35,17.30
2017,05,27,10,36,17.40
2017,05,27,10,37,17.40
2017,05,27,10,38,17.40
2017,05,27,10,39,17.50
2017,05,27,10,40,17.50
2017,05,27,10,41,17.50
2017,05,27,10,42,17.50
2017,05,27,10,43,17.50
2017,05,27,10,44,17.50
2017,05,27,10,45,17.60
2017,05,27,10,46,17.60
2017,05,27,10,47,17.60
2017,05,27,10,48,17.50
2017,05,27,10,49,17.40
2017,05,27,10,50,17.50
2017,05,27,10,51,17.50
2017,05,27,10,52,17.50
2017,05,27,10,53,17.50
2017,05,27,10,54,17.60
2017,05,27,10,55,17.60
2017,05,27,10,56,17.60
2017,05,27,10,57,17.60
2017,05,27,10,58,17.70
2017,05,27,10,59,17.70
2017,05,27,11,00,17.80
2017,05,27,11,01,17.80
2017,05,27,11,02,17.80
2017,05,27,11,03,17.80
2017,05,27,11,04,17.90
2017,05,27,11,05,17.90
2017,05,27,11,06,17.90
2017,05,27,11,07,17.90
2017,05,27,11,08,17.90
2017,05,27,11,09,17.80
2017,05,27,11,10,17.80
2017,05,27,11,11,17.90
2017,05,27,11,12,17.90
2017,05,27,11,13,18.00
2017,05,27,11,14,18.10
2017,05,27,11,15,18.20
2017,05,27,11,16,18.20
2017,05,27,11,17,18.30
2017,05,27,11,18,18.30
2017,05,27,11,19,18.30
2017,05,27,11,20,18.30
2017,05,27,11,21,18.20
2017,05,27,11,22,18.20
2017,05,27,11,23,18.20
2017,05,27,11,24,18.20
2017,05,27,11,25,18.20
2017,05,27,11,26,18.20
2017,05,27,11,27,18.20
2017,05,27,11,28,18.20
2017,05,27,11,29,18.20
2017,05,27,11,30,18.20
2017,05,27,11,31,18.20
2017,05,27,11,32,18.30
2017,05,27,11,33,18.40
2017,05,27,11,34,18.40
2017,05,27,11,35,18.50
2017,05,27,11,36,18.50
2017,05,27,11,37,18.50
2017,05,27,11,38,18.40
2017,05,27,11,39,18.40
2017,05,27,11,40,18.40
2017,05,27,11,41,18.40
2017,05,27,11,42,18.50
2017,05,27,11,43,18.50
2017,05,27,11,44,18.60
2017,05,27,11,45,18.60
2017,05,27,11,46,18.60
2017,05,27,11,47,18.60
2017,05,27,11,48,18.60
2017,05,27,11,49,18.60
2017,05,27,11,50,18.70
2017,05,27,11,51,18.70
2017,05,27,11,52,18.90
2017,05,27,11,53,19.00
2017,05,27,11,54,19.10
2017,05,27,11,55,19.20
2017,05,27,11,56,19.20
2017,05,27,11,57,19.30
2017,05,27,11,58,19.30
2017,05,27,11,59,19.20
2017,05,27,12,00,19.10
2017,05,27,12,01,19.10
2017,05,27,12,02,19.10
2017,05,27,12,03,19.10
2017,05,27,12,04,19.10
2017,05,27,12,05,19.10
2017,05,27,12,06,19.10
2017,05,27,12,07,19.20
2017,05,27,12,08,19.20
2017,05,27,12,09,19.30
2017,05,27,12,10,19.30
2017,05,27,12,11,19.20
2017,05,27,12,12,19.20
2017,05,27,12,13,19.30
2017,05,27,12,14,19.30
2017,05,27,12,15,19.40
2017,05,27,12,16,19.40
2017,05,27,12,17,19.50
2017,05,27,12,18,19.60
2017,05,27,12,19,19.70
2017,05,27,12,20,19.70
2017,05,27,12,21,19.80
2017,05,27,12,22,19.80
2017,05,27,12,23,19.90
2017,05,27,12,24,19.90
2017,05,27,12,25,19.90
2017,05,27,12,26,20.10
2017,05,27,12,27,20.10
2017,05,27,12,28,20.20
2017,05,27,12,29,20.20
2017,05,27,12,30,20.20
2017,05,27,12,31,20.30
2017,05,27,12,32,20.40
2017,05,27,12,33,20.40
2017,05,27,12,34,20.40
2017,05,27,12,35,20.40
2017,05,27,12,36,20.50
2017,05,27,12,37,20.50
2017,05,27,12,38,20.60
2017,05,27,12,39,20.60
2017,05,27,12,40,20.70
2017,05,27,12,41,20.70
2017,05,27,12,42,20.80
2017,05,27,12,43,20.90
2017,05,27,12,44,21.00
2017,05,27,12,45,21.00
2017,05,27,12,46,21.00
2017,05,27,12,47,21.10
2017,05,27,12,48,21.10
2017,05,27,12,49,21.20
2017,05,27,12,50,21.20
2017,05,27,12,51,21.30
2017,05,27,12,52,21.30
2017,05,27,12,53,21.30
2017,05,27,12,54,21.40
2017,05,27,12,55,21.50
2017,05,27,12,56,21.60
2017,05,27,12,57,21.70
2017,05,27,12,58,21.90
2017,05,27,12,59,22.00
2017,05,27,13,00,22.00
2017,05,27,13,01,22.10
2017,05,27,13,02,22.10
2017,05,27,13,03,22.10
2017,05,27,13,04,22.10
2017,05,27,13,05,22.10
2017,05,27,13,06,22.10
2017,05,27,13,07,22.10
2017,05,27,13,08,22.10
2017,05,27,13,09,22.10
2017,05,27,13,10,22.10
2017,05,27,13,11,22.20
2017,05,27,13,12,22.20
2017,05,27,13,13,22.30
2017,05,27,13,14,22.30
2017,05,27,13,15,22.30
2017,05,27,13,16,22.30
2017,05,27,13,17,22.30
2017,05,27,13,18,22.30
2017,05,27,13,19,22.40
2017,05,27,13,20,22.30
2017,05,27,13,21,22.30
2017,05,27,13,22,22.30
2017,05,27,13,23,22.20
2017,05,27,13,24,22.20
2017,05,27,13,25,22.20
2017,05,27,13,26,22.30
2017,05,27,13,27,22.30
2017,05,27,13,28,22.30
2017,05,27,13,29,22.40
2017,05,27,13,30,22.40
2017,05,27,13,31,22.40
2017,05,27,13,32,22.50
2017,05,27,13,33,22.60
2017,05,27,13,34,22.70
2017,05,27,13,35,22.80
2017,05,27,13,36,22.90
2017,05,27,13,37,23.00
2017,05,27,13,38,23.10
2017,05,27,13,39,23.20
2017,05,27,13,40,23.30
2017,05,27,13,41,23.30
2017,05,27,13,42,23.30
2017,05,27,13,43,23.30
2017,05,27,13,44,23.30
2017,05,27,13,45,23.30
2017,05,27,13,46,23.30
2017,05,27,13,47,23.30
2017,05,27,13,48,23.30
2017,05,27,13,49,23.30
2017,05,27,13,50,23.40
2017,05,27,13,51,23.50
2017,05,27,13,52,23.60
2017,05,27,13,53,23.60
2017,05,27,13,54,23.60
2017,05,27,13,55,23.50
2017,05,27,13,56,23.40
2017,05,27,13,57,23.40
2017,05,27,13,58,23.40
2017,05,27,13,59,23.40
2017,05,27,14,00,23.40
2017,05,27,14,01,23.40
2017,05,27,14,02,23.40
2017,05,27,14,03,23.40
2017,05,27,14,04,23.50
2017,05,27,14,05,23.60
2017,05,27,14,06,23.70
2017,05,27,14,07,23.70
2017,05,27,14,08,23.70
2017,05,27,14,09,23.70
2017,05,27,14,10,23.70
2017,05,27,14,11,23.80
2017,05,27,14,12,24.00
2017,05,27,14,13,24.10
2017,05,27,14,14,24.20
2017,05,27,14,15,24.20
2017,05,27,14,16,24.30
2017,05,27,14,17,24.40
2017,05,27,14,18,24.40
2017,05,27,14,19,24.50
2017,05,27,14,20,24.60
2017,05,27,14,21,24.70
2017,05,27,14,22,24.70
2017,05,27,14,23,24.70
2017,05,27,14,24,24.60
2017,05,27,14,25,24.50
2017,05,27,14,26,24.50
2017,05,27,14,27,24.40
2017,05,27,14,28,24.30
2017,05,27,14,29,24.40
2017,05,27,14,30,24.40
2017,05,27,14,31,24.40
2017,05,27,14,32,24.40
2017,05,27,14,33,24.40
2017,05,27,14,34,24.30
2017,05,27,14,35,24.30
2017,05,27,14,36,24.20
2017,05,27,14,37,24.20
2017,05,27,14,38,24.10
2017,05,27,14,39,24.10
2017,05,27,14,40,24.10
2017,05,27,14,41,24.20
2017,05,27,14,42,24.30
2017,05,27,14,43,24.40
2017,05,27,14,44,24.40
2017,05,27,14,45,24.30
2017,05,27,14,46,24.20
2017,05,27,14,47,24.20
2017,05,27,14,48,24.10
2017,05,27,14,49,24.10
2017,05,27,14,50,24.10
2017,05,27,14,51,24.20
2017,05,27,14,52,24.30
2017,05,27,14,53,24.30
2017,05,27,14,54,24.30
2017,05,27,14,55,24.20
2017,05,27,14,56,24.20
2017,05,27,14,57,24.20
2017,05,27,14,58,24.20
2017,05,27,14,59,24.20
2017,05,27,15,00,24.20
2017,05,27,15,01,24.20
2017,05,27,15,02,24.20
2017,05,27,15,03,24.20
2017,05,27,15,04,24.20
2017,05,27,15,05,24.20
2017,05,27,15,06,24.20
2017,05,27,15,07,24.20
2017,05,27,15,08,24.20
2017,05,27,15,09,24.20
2017,05,27,15,10,24.30
2017,05,27,15,11,24.30
2017,05,27,15,12,24.40
2017,05,27,15,13,24.50
2017,05,27,15,14,24.50
2017,05,27,15,15,24.50
2017,05,27,15,16,24.60
2017,05,27,15,17,24.70
2017,05,27,15,18,24.50
2017,05,27,15,19,24.50
2017,05,27,15,20,24.50
2017,05,27,15,21,24.50
2017,05,27,15,22,24.50
2017,05,27,15,23,24.40
2017,05,27,15,24,24.30
2017,05,27,15,25,24.30
2017,05,27,15,26,24.30
2017,05,27,15,27,24.40
2017,05,27,15,28,24.40
2017,05,27,15,29,24.50
2017,05,27,15,30,24.50
2017,05,27,15,31,24.60
2017,05,27,15,32,24.70
2017,05,27,15,33,24.80
2017,05,27,15,34,25.00
2017,05,27,15,35,25.00
2017,05,27,15,36,25.10
2017,05,27,15,37,25.10
2017,05,27,15,38,25.00
2017,05,27,15,39,24.90
2017,05,27,15,40,24.80
2017,05,27,15,41,24.80
2017,05,27,15,42,24.80
2017,05,27,15,43,24.80
2017,05,27,15,44,24.80
2017,05,27,15,45,24.90
2017,05,27,15,46,25.00
2017,05,27,15,47,25.10
2017,05,27,15,48,25.20
2017,05,27,15,49,25.30
2017,05,27,15,50,25.40
2017,05,27,15,51,25.50
2017,05,27,15,52,25.60
2017,05,27,15,53,25.70
2017,05,27,15,54,25.70
2017,05,27,15,55,25.60
2017,05,27,15,56,25.60
2017,05,27,15,57,25.70
2017,05,27,15,58,25.60
2017,05,27,15,59,25.60
2017,05,27,16,00,25.50
2017,05,27,16,01,25.40
2017,05,27,16,02,25.50
2017,05,27,16,03,25.60
2017,05,27,16,04,25.60
2017,05,27,16,05,25.60
2017,05,27,16,06,25.60
2017,05,27,16,07,25.60
2017,05,27,16,08,25.60
2017,05,27,16,09,25.60
2017,05,27,16,10,25.70
2017,05,27,16,11,25.80
2017,05,27,16,12,25.70
2017,05,27,16,13,25.60
2017,05,27,16,14,25.40
2017,05,27,16,15,25.40
2017,05,27,16,16,25.40
2017,05,27,16,17,25.30
2017,05,27,16,18,25.30
2017,05,27,16,19,25.30
2017,05,27,16,20,25.20
2017,05,27,16,21,25.30
2017,05,27,16,22,25.30
2017,05,27,16,23,25.40
2017,05,27,16,24,25.40
2017,05,27,16,25,25.50
2017,05,27,16,26,25.50
2017,05,27,16,27,25.60
2017,05,27,16,28,25.70
2017,05,27,16,29,25.70
2017,05,27,16,30,25.80
2017,05,27,16,31,25.90
2017,05,27,16,32,25.90
2017,05,27,16,33,26.00
2017,05,27,16,34,26.00
2017,05,27,16,35,26.00
2017,05,27,16,36,26.10
2017,05,27,16,37,26.10
2017,05,27,16,38,26.10
2017,05,27,16,39,26.10
2017,05,27,16,40,26.10
2017,05,27,16,41,26.10
2017,05,27,16,42,26.10
2017,05,27,16,43,26.10
2017,05,27,16,44,26.10
2017,05,27,16,45,26.10
2017,05,27,16,46,26.10
2017,05,27,16,47,26.10
2017,05,27,16,48,26.20
2017,05,27,16,49,26.30
2017,05,27,16,50,26.50
2017,05,27,16,51,26.60
2017,05,27,16,52,26.60
2017,05,27,16,53,26.60
2017,05,27,16,54,26.50
2017,05,27,16,55,26.40
2017,05,27,16,56,26.30
2017,05,27,16,57,26.20
2017,05,27,16,58,26.10
2017,05,27,16,59,26.00
2017,05,27,17,00,26.00
2017,05,27,17,01,26.00
2017,05,27,17,02,26.00
2017,05,27,17,03,26.10
2017,05,27,17,04,26.10
2017,05,27,17,05,26.20
2017,05,27,17,06,26.20
2017,05,27,17,07,26.20
2017,05,27,17,08,26.20
2017,05,27,17,09,26.30
2017,05,27,17,10,26.40
2017,05,27,17,11,26.40
2017,05,27,17,12,26.50
2017,05,27,17,13,26.60
2017,05,27,17,14,26.60
2017,05,27,17,15,26.60
2017,05,27,17,16,26.60
2017,05,27,17,17,26.60
2017,05,27,17,18,26.60
2017,05,27,17,19,26.60